FW4751 Weather Reports


time (UTC)temp
C
wind
direction
speed
KPH
gust
KPH
rain 1hr
cm
rain 24hr
cm
rain mn
cm
humidity
%
barometer
mb
20260505125005 11 0.0 1.6 0.00 0.00 0.00 87 1015.2
20260505124505 11 0.0 1.6 0.00 0.00 0.00 87 1015.3
20260505124005 11 0.0 1.6 0.00 0.00 0.00 86 1015.3
20260505123505 11 0.0 1.6 0.00 0.00 0.00 86 1015.2
20260505123005 11 0.0 1.6 0.00 0.00 0.00 86 1015.5
20260505122505 11 0.0 1.6 0.00 0.00 0.00 86 1015.4
20260505122005 11 0.0 1.6 0.00 0.00 0.00 86 1015.2
20260505121505 11 0.0 1.6 0.00 0.00 0.00 86 1015.4
20260505121025 11 0.0 1.6 0.00 0.00 0.00 85 1015.3
20260505120505 11 0.0 1.6 0.00 0.00 0.00 85 1015.1
20260505120025 11 0.0 1.6 0.00 0.00 0.00 85 1015.1
20260505115505 11 0.0 1.6 0.00 0.00 0.00 85 1015.2
20260505115005 11 0.0 1.6 0.00 0.00 0.00 84 1015.3
20260505114525 11 0.0 1.6 0.00 0.00 0.00 84 1015.3
20260505114005 11 0.0 1.6 0.00 0.00 0.00 84 1015.4
20260505113506 11 0.0 1.6 0.00 0.00 0.00 84 1015.4
20260505113005 11 0.0 1.6 0.00 0.00 0.00 84 1015.3
20260505112524 11 0.0 0.0 0.00 0.00 0.00 83 1015.4
20260505112005 11 0.0 1.6 0.00 0.00 0.00 83 1015.3
20260505111505 11 0.0 1.6 0.00 0.00 0.00 83 1015.4
20260505111005 11 0.0 0.0 0.00 0.00 0.00 83 1015.4
20260505110525 11 0.0 1.6 0.00 0.00 0.00 83 1015.4
20260505102005 12 0.0 0.0 0.00 0.00 0.00 81 1015.3
20260505101524 12 0.0 1.6 0.00 0.00 0.00 81 1015.3
20260505101005 12 0.0 1.6 0.00 0.00 0.00 81 1015.4
20260505100504 12 0.0 1.6 0.00 0.00 0.00 80 1015.6
20260505100004 12 0.0 1.6 0.00 0.00 0.00 80 1015.5
20260505095504 12 0.0 1.6 0.00 0.00 0.00 80 1015.6
20260505095005 12 0.0 1.6 0.00 0.00 0.00 80 1015.5
20260505094524 12 0.0 1.6 0.00 0.00 0.00 79 1015.5
20260505094004 12 0.0 1.6 0.00 0.00 0.00 79 1015.4
20260505093504 12 0.0 1.6 0.00 0.00 0.00 78 1015.6
20260505093005 12 0.0 1.6 0.00 0.00 0.00 78 1015.7
20260505092544 12 0.0 1.6 0.00 0.00 0.00 77 1015.6
20260505092005 12 0.0 1.6 0.00 0.00 0.00 77 1015.5
20260505091505 12 315 1.6 3.2 0.00 0.00 0.00 77 1015.6
20260505091025 12 315 1.6 4.8 0.00 0.00 0.00 76 1015.7
20260505090505 12 338 1.6 3.2 0.00 0.00 0.00 76 1015.8
20260505090005 12 0.0 3.2 0.00 0.00 0.00 76 1015.8
20260505085504 12 315 1.6 4.8 0.00 0.00 0.00 76 1015.9
20260505085005 12 315 1.6 3.2 0.00 0.00 0.00 76 1015.8
20260505084505 12 0.0 3.2 0.00 0.00 0.00 76 1015.9
20260505084024 12 315 1.6 3.2 0.00 0.00 0.00 76 1016.0
20260505083504 12 315 1.6 3.2 0.00 0.00 0.00 76 1016.1
20260505083005 12 315 1.6 3.2 0.00 0.00 0.00 75 1016.1
20260505082504 12 293 1.6 3.2 0.00 0.00 0.00 75 1016.2
20260505082004 12 315 1.6 4.8 0.00 0.00 0.00 75 1016.1
20260505081504 12 315 1.6 4.8 0.00 0.00 0.00 74 1016.2
20260505081004 12 315 1.6 6.4 0.00 0.00 0.00 74 1016.1
20260505080504 12 315 1.6 4.8 0.00 0.00 0.00 73 1016.2
20260505080024 12 315 1.6 4.8 0.00 0.00 0.00 72 1016.3
20260505075505 12 315 1.6 4.8 0.00 0.00 0.00 72 1016.3
20260505075005 12 315 1.6 6.4 0.00 0.00 0.00 72 1016.3
20260505074524 12 315 3.2 8.0 0.00 0.00 0.00 72 1016.3
20260505074004 12 293 3.2 9.7 0.00 0.00 0.00 72 1016.3
20260505073524 12 315 3.2 6.4 0.00 0.00 0.00 72 1016.3
20260505073024 12 315 3.2 4.8 0.00 0.00 0.00 72 1016.2
20260505072504 12 338 3.2 8.0 0.00 0.00 0.00 72 1016.3
20260505072004 12 338 3.2 6.4 0.00 0.00 0.00 72 1016.3
20260505071504 12 293 3.2 9.7 0.00 0.00 0.00 72 1016.2
20260505071004 12 338 1.6 4.8 0.00 0.00 0.00 72 1016.1
20260505070505 12 315 3.2 8.0 0.00 0.00 0.00 72 1016.0
20260505070046 12 315 3.2 14.5 0.00 0.00 0.00 73 1016.0
20260505065504 12 315 3.2 8.0 0.00 0.00 0.00 73 1015.9
20260505065004 12 338 3.2 11.3 0.00 0.00 0.00 73 1015.9
20260505064504 12 338 1.6 6.4 0.00 0.00 0.00 74 1015.8
20260505064024 12 315 1.6 8.0 0.00 0.00 0.00 74 1015.9
20260505063503 12 315 1.6 4.8 0.00 0.00 0.00 75 1015.9
20260505063004 12 315 1.6 6.4 0.00 0.00 0.00 75 1015.9
20260505062525 12 315 1.6 4.8 0.00 0.00 0.00 75 1015.9
20260505062004 12 315 3.2 6.4 0.00 0.00 0.00 76 1015.8
20260505061503 13 270 1.6 4.8 0.00 0.00 0.00 76 1015.7
20260505061024 13 338 1.6 6.4 0.00 0.00 0.00 76 1015.7
20260505060504 13 270 1.6 6.4 0.00 0.00 0.00 76 1015.7
20260505060004 13 315 1.6 4.8 0.00 0.00 0.00 75 1015.6
20260505055503 13 315 1.6 6.4 0.00 0.00 0.00 75 1015.7
20260505055004 13 315 3.2 6.4 0.00 0.00 0.00 75 1015.8
20260505054504 13 315 3.2 8.0 0.00 0.00 0.00 76 1015.9
20260505054003 13 315 1.6 8.0 0.00 0.00 0.00 76 1015.8
20260505053504 13 315 1.6 4.8 0.00 0.00 0.00 76 1015.9
20260505053004 13 315 3.2 8.0 0.00 0.00 0.00 76 1016.0
20260505052504 13 338 3.2 6.4 0.00 0.00 0.00 76 1016.0
20260505052004 13 0 3.2 12.9 0.00 0.00 0.00 77 1016.2
20260505051504 13 338 3.2 9.7 0.00 0.00 0.00 77 1016.1
20260505051003 13 338 3.2 9.7 0.00 0.00 0.00 78 1016.1
20260505050503 13 338 4.8 11.3 0.00 0.00 0.00 78 1016.1
20260505041503 13 338 1.6 4.8 0.00 0.00 0.00 76 1015.7
20260505041004 13 338 1.6 6.4 0.00 0.00 0.00 76 1015.7
20260505040504 13 338 1.6 4.8 0.00 0.00 0.00 75 1015.6
20260505040004 13 315 1.6 4.8 0.00 0.00 0.00 75 1015.6
20260505035503 13 338 1.6 4.8 0.00 0.00 0.00 75 1015.6
20260505035004 13 315 1.6 6.4 0.00 0.00 0.00 75 1015.5
20260505034523 14 315 1.6 4.8 0.00 0.00 0.00 74 1015.5
20260505034004 14 338 1.6 6.4 0.00 0.00 0.00 74 1015.5
20260505033504 14 315 1.6 4.8 0.00 0.00 0.00 73 1015.5
20260505033003 14 315 1.6 6.4 0.00 0.00 0.00 73 1015.4
20260505032503 14 315 1.6 6.4 0.00 0.00 0.00 72 1015.1
20260505032044 14 338 3.2 8.0 0.00 0.00 0.00 72 1015.0
20260505031504 15 315 3.2 8.0 0.00 0.00 0.00 71 1015.2
20260505031003 15 338 1.6 8.0 0.00 0.00 0.00 70 1015.1
20260505030503 15 315 1.6 4.8 0.00 0.00 0.00 70 1015.1
20260505030004 15 315 1.6 4.8 0.00 0.00 0.00 70 1015.1
20260505025503 15 338 1.6 8.0 0.00 0.00 0.00 69 1015.1
20260505025003 15 315 1.6 6.4 0.00 0.00 0.00 69 1015.0
20260505024523 15 315 1.6 4.8 0.00 0.00 0.00 69 1015.0
20260505024003 15 315 1.6 4.8 0.00 0.00 0.00 68 1015.1
20260505023523 15 315 3.2 6.4 0.00 0.00 0.00 68 1015.0
20260505023003 15 315 1.6 6.4 0.00 0.00 0.00 68 1015.0
20260505022503 15 315 3.2 6.4 0.00 0.00 0.00 67 1014.9
20260505022003 15 338 3.2 8.0 0.00 0.00 0.00 67 1014.8
20260505021503 15 338 1.6 6.4 0.00 0.00 0.00 67 1014.9
20260505021008 15 338 1.6 8.0 0.00 0.00 0.00 67 1015.0
20260505020503 15 338 1.6 4.8 0.00 0.00 0.00 66 1015.0
20260505020003 15 338 1.6 6.4 0.00 0.00 0.00 66 1014.9
20260505015523 15 338 3.2 9.7 0.00 0.00 0.00 65 1014.9
20260505015003 16 315 3.2 9.7 0.00 0.00 0.00 65 1014.9
20260505014523 16 315 3.2 8.0 0.00 0.00 0.00 64 1015.0
20260505014023 16 315 3.2 8.0 0.00 0.00 0.00 63 1015.1
20260505013523 16 338 3.2 8.0 0.00 0.00 0.00 62 1015.0
20260505013003 16 315 3.2 11.3 0.00 0.00 0.00 62 1015.1
20260505012503 16 315 3.2 8.0 0.00 0.00 0.00 61 1015.1
20260505012003 16 338 1.6 6.4 0.00 0.00 0.00 61 1015.1
20260505011503 16 338 3.2 8.0 0.00 0.00 0.00 60 1015.1
20260505011003 16 338 3.2 6.4 0.00 0.00 0.00 59 1015.1
20260505010523 16 315 3.2 8.0 0.00 0.00 0.00 59 1015.2
20260505010004 16 315 4.8 11.3 0.00 0.00 0.00 58 1015.3
20260505005624 17 338 3.2 8.0 0.00 0.00 0.00 58 1015.4
20260505005003 16 338 3.2 8.0 0.00 0.00 0.00 58 1015.3
20260505004503 16 338 4.8 11.3 0.00 0.00 0.00 58 1015.2
20260505004003 16 338 3.2 9.7 0.00 0.00 0.00 60 1015.3
20260505003524 16 338 4.8 9.7 0.00 0.00 0.00 60 1015.4
20260505003003 16 338 3.2 8.0 0.00 0.00 0.00 60 1015.4
20260505002503 16 338 3.2 9.7 0.00 0.00 0.00 60 1015.4
20260505002023 16 338 3.2 9.7 0.00 0.00 0.00 61 1015.5
20260505001503 16 338 3.2 8.0 0.00 0.00 0.00 62 1015.4
20260505001023 16 315 3.2 9.7 0.00 0.00 0.00 63 1015.4
20260505000503 16 338 3.2 11.3 0.00 0.00 0.00 63 1015.4
20260505000003 16 315 3.2 11.3 0.00 0.00 0.00 63 1015.3
20260504235503 16 338 3.2 8.0 0.00 0.00 0.00 63 1015.3
20260504235003 17 338 3.2 8.0 0.00 0.00 0.00 62 1015.2
20260504234503 17 338 1.6 3.2 0.00 0.00 0.00 62 1015.2
20260504234003 17 315 1.6 4.8 0.00 0.00 0.00 62 1015.2
20260504233503 17 225 1.6 4.8 0.00 0.00 0.00 63 1015.2
20260504233003 17 225 3.2 6.4 0.00 0.00 0.00 64 1015.3
20260504232523 17 225 3.2 8.0 0.00 0.00 0.00 65 1015.3
20260504232003 17 225 3.2 9.7 0.00 0.00 0.00 63 1015.4
20260504231523 17 225 3.2 9.7 0.00 0.00 0.00 63 1015.2
20260504231003 17 225 3.2 11.3 0.00 0.00 0.00 63 1015.1
20260504230503 17 225 4.8 11.3 0.00 0.00 0.00 63 1015.2
20260504230003 17 225 4.8 12.9 0.00 0.00 0.00 61 1015.2
20260504225502 18 225 3.2 9.7 0.00 0.00 0.00 61 1015.2
20260504225003 18 225 6.4 14.5 0.00 0.00 0.00 61 1015.1
20260504224523 18 225 4.8 11.3 0.00 0.00 0.00 61 1015.2
20260504224003 18 225 4.8 9.7 0.00 0.00 0.00 61 1015.1
20260504223503 18 225 4.8 12.9 0.00 0.00 0.00 61 1015.3
20260504223005 18 225 3.2 9.7 0.00 0.00 0.00 62 1015.2
20260504222545 17 225 3.2 16.1 0.00 0.00 0.00 60 1015.3
20260504222004 18 225 3.2 11.3 0.00 0.00 0.00 58 1015.3
20260504221505 18 225 4.8 12.9 0.00 0.00 0.00 57 1015.3
20260504221004 19 225 4.8 17.7 0.00 0.00 0.00 57 1015.4
20260504220505 19 225 6.4 17.7 0.00 0.00 0.00 55 1015.4
20260504220005 20 225 6.4 14.5 0.00 0.00 0.00 54 1015.4
20260504215506 20 225 6.4 12.9 0.00 0.00 0.00 53 1015.5
20260504215004 21 225 4.8 11.3 0.00 0.00 0.00 52 1015.4
20260504214510 21 225 4.8 12.9 0.00 0.00 0.00 50 1015.3
20260504214005 21 203 4.8 12.9 0.00 0.00 0.00 50 1015.5
20260504213505 21 225 4.8 12.9 0.00 0.00 0.00 50 1015.4
20260504213005 21 225 4.8 14.5 0.00 0.00 0.00 50 1015.5
20260504212504 21 225 4.8 14.5 0.00 0.00 0.00 49 1015.4
20260504212005 21 225 4.8 11.3 0.00 0.00 0.00 49 1015.5
20260504211505 21 225 4.8 14.5 0.00 0.00 0.00 50 1015.4
20260504211005 21 315 3.2 11.3 0.00 0.00 0.00 52 1015.5
20260504210504 21 293 4.8 12.9 0.00 0.00 0.00 54 1015.6
20260504210005 20 225 4.8 11.3 0.00 0.00 0.00 54 1015.4
20260504205504 20 225 4.8 12.9 0.00 0.00 0.00 55 1015.6
20260504205004 20 225 4.8 11.3 0.00 0.00 0.00 55 1015.6
20260504204504 19 293 1.6 6.4 0.00 0.00 0.00 59 1015.6
20260504204005 18 315 3.2 9.7 0.00 0.00 0.00 59 1015.6
20260504203505 18 338 1.6 6.4 0.00 0.00 0.00 60 1015.6
20260504203004 18 315 1.6 6.4 0.00 0.00 0.00 61 1015.6
20260504202504 17 0 1.6 4.8 0.00 0.00 0.00 63 1015.6
20260504202004 17 293 1.6 4.8 0.00 0.00 0.00 64 1015.7
20260504201504 16 338 1.6 4.8 0.00 0.00 0.00 65 1015.7
20260504201024 16 338 1.6 4.8 0.00 0.00 0.00 65 1015.8
20260504200504 16 293 1.6 3.2 0.00 0.00 0.00 67 1015.8
20260504200004 16 338 1.6 6.4 0.00 0.00 0.00 67 1015.8
20260504195505 16 45 1.6 4.8 0.00 0.00 0.00 65 1015.9
20260504195004 16 338 3.2 6.4 0.00 0.00 0.00 66 1015.8
20260504194505 16 45 3.2 9.7 0.00 0.00 0.00 67 1016.0
20260504194025 16 45 3.2 6.4 0.00 0.00 0.00 69 1015.9
20260504193504 16 338 3.2 8.0 0.00 0.00 0.00 68 1015.9
20260504193005 16 45 3.2 8.0 0.00 0.00 0.00 68 1015.9
20260504192525 16 45 3.2 8.0 0.00 0.00 0.00 69 1015.9
20260504192005 16 45 3.2 6.4 0.00 0.00 0.00 70 1015.9
20260504191524 16 45 4.8 8.0 0.00 0.00 0.00 70 1016.0
20260504191004 16 338 3.2 8.0 0.00 0.00 0.00 71 1015.9
20260504190504 16 45 3.2 8.0 0.00 0.00 0.00 70 1015.9
20260504190005 16 45 3.2 6.4 0.00 0.00 0.00 69 1015.9
20260504185504 16 45 3.2 6.4 0.00 0.00 0.00 69 1016.0
20260504185005 16 338 1.6 6.4 0.00 0.00 0.00 68 1015.9
20260504184504 16 45 1.6 6.4 0.00 0.00 0.00 66 1015.9
20260504184004 16 45 3.2 6.4 0.00 0.00 0.00 66 1015.8
20260504183504 17 45 3.2 8.0 0.00 0.00 0.00 65 1015.9
20260504183004 17 68 3.2 6.4 0.00 0.00 0.00 65 1016.0
20260504182504 17 45 1.6 4.8 0.00 0.00 0.00 66 1015.8
20260504182004 16 45 1.6 4.8 0.00 0.00 0.00 67 1015.8
20260504181504 16 45 1.6 6.4 0.00 0.00 0.00 68 1015.8
20260504181004 16 45 1.6 6.4 0.00 0.00 0.00 67 1015.7
20260504180504 16 45 3.2 6.4 0.00 0.00 0.00 66 1015.9
20260504180004 17 45 3.2 6.4 0.00 0.00 0.00 62 1015.9
20260504175504 18 45 3.2 6.4 0.00 0.00 0.00 59 1015.7
20260504175024 18 45 1.6 6.4 0.00 0.00 0.00 57 1015.6
20260504174504 19 135 1.6 3.2 0.00 0.00 0.00 57 1015.6
20260504174024 19 135 1.6 4.8 0.00 0.00 0.00 56 1015.7
20260504173504 19 135 1.6 3.2 0.00 0.00 0.00 57 1015.7
20260504173004 19 135 1.6 3.2 0.00 0.00 0.00 58 1015.6
20260504172504 19 113 1.6 6.4 0.00 0.00 0.00 58 1015.5
20260504172004 19 135 1.6 3.2 0.00 0.00 0.00 59 1015.5
20260504171504 18 113 1.6 3.2 0.00 0.00 0.00 60 1015.5
20260504171004 18 113 3.2 6.4 0.00 0.00 0.00 62 1015.3
20260504170504 17 113 3.2 8.0 0.00 0.00 0.00 63 1015.3
20260504151004 13 113 1.6 3.2 0.00 0.00 0.00 77 1015.5
20260504150504 13 45 1.6 3.2 0.00 0.00 0.00 81 1015.4
20260504141003 8 225 1.6 3.2 0.00 0.00 0.00 90 1015.3
20260504140503 8 0.0 1.6 0.00 0.00 0.00 90 1015.3